�������l�o���
Date,Time,MP-1(��Sv/h),MP-2(��Sv/h),MP-3(��Sv/h),MP-4(��Sv/h),MP-5(��Sv/h),MP-6(��Sv/h),MP-7(��Sv/h),MP-8(��Sv/h),����,����(m/s),���J
2019/06/28,00:00,0.744,1.053,0.726,1.310,0.959,0.430,0.745,0.706,��쓌,3.5,�L
2019/06/28,00:10,0.745,1.047,0.724,1.308,0.961,0.430,0.744,0.705,��,5.2,�L
2019/06/28,00:20,0.745,1.053,0.723,1.308,0.960,0.431,0.744,0.704,��쓌,3.3,�L
2019/06/28,00:30,0.745,1.051,0.727,1.307,0.960,0.431,0.744,0.703,��쓌,3.1,�L
2019/06/28,00:40,0.746,1.050,0.723,1.312,0.960,0.430,0.745,0.702,��쓌,4.9,�L
2019/06/28,00:50,0.746,1.053,0.724,1.308,0.960,0.429,0.744,0.703,��,4.1,�L
2019/06/28,01:00,0.746,1.053,0.724,1.307,0.959,0.430,0.744,0.704,��쐼,3.5,�L
2019/06/28,01:10,0.745,1.052,0.725,1.308,0.960,0.432,0.743,0.706,��,3.6,�L
2019/06/28,01:20,0.746,1.053,0.724,1.305,0.960,0.432,0.747,0.706,��,2.3,�L
2019/06/28,01:30,0.746,1.053,0.726,1.308,0.961,0.432,0.745,0.704,��,4.6,�L
2019/06/28,01:40,0.745,1.056,0.726,1.308,0.962,0.432,0.746,0.705,��,6.0,��
2019/06/28,01:50,0.747,1.054,0.725,1.306,0.962,0.433,0.746,0.707,��쓌,6.1,�L
2019/06/28,02:00,0.749,1.054,0.726,1.309,0.963,0.432,0.747,0.706,��,4.5,�L
2019/06/28,02:10,0.749,1.056,0.727,1.305,0.962,0.432,0.748,0.706,��,5.4,�L
2019/06/28,02:20,0.749,1.059,0.726,1.307,0.960,0.434,0.745,0.707,��쐼,5.8,�L
2019/06/28,02:30,0.749,1.054,0.727,1.309,0.962,0.433,0.746,0.706,��,7.1,�L
2019/06/28,02:40,0.748,1.055,0.725,1.311,0.966,0.433,0.747,0.707,��,7.3,�L
2019/06/28,02:50,0.746,1.055,0.728,1.308,0.964,0.434,0.746,0.707,��,7.2,�L
2019/06/28,03:00,0.748,1.054,0.728,1.307,0.964,0.434,0.747,0.707,��,6.9,�L
2019/06/28,03:10,0.748,1.053,0.727,1.306,0.962,0.433,0.745,0.708,��,5.8,�L
2019/06/28,03:20,0.748,1.054,0.727,1.307,0.963,0.435,0.747,0.706,��,6.4,�L
2019/06/28,03:30,0.747,1.052,0.727,1.308,0.961,0.433,0.744,0.706,��,5.1,�L
2019/06/28,03:40,0.748,1.051,0.723,1.306,0.958,0.432,0.745,0.706,��,6.2,�L
2019/06/28,03:50,0.747,1.050,0.725,1.306,0.958,0.433,0.746,0.704,��쐼,5.5,�L
2019/06/28,04:00,0.746,1.047,0.724,1.305,0.958,0.431,0.745,0.704,��쐼,6.9,�L
2019/06/28,04:10,0.744,1.050,0.723,1.304,0.960,0.433,0.745,0.703,��,7.3,�L
2019/06/28,04:20,0.742,1.049,0.724,1.305,0.954,0.431,0.746,0.704,��,8.9,��
2019/06/28,04:30,0.744,1.051,0.725,1.304,0.957,0.432,0.746,0.706,��,8.7,��
2019/06/28,04:40,0.746,1.048,0.723,1.305,0.955,0.432,0.746,0.704,��,9.3,��
2019/06/28,04:50,0.745,1.050,0.724,1.305,0.955,0.433,0.744,0.704,��쐼,8.0,�L
2019/06/28,05:00,0.745,1.048,0.724,1.306,0.955,0.432,0.745,0.704,��,6.9,��
2019/06/28,05:10,0.746,1.050,0.725,1.305,0.957,0.433,0.746,0.704,��,5.3,��
2019/06/28,05:20,0.743,1.051,0.723,1.302,0.955,0.432,0.745,0.703,��,4.9,��
2019/06/28,05:30,0.744,1.051,0.723,1.305,0.955,0.432,0.746,0.703,��쐼,5.0,��
2019/06/28,05:40,0.746,1.049,0.724,1.306,0.958,0.430,0.745,0.705,��,7.4,��
2019/06/28,05:50,0.746,1.051,0.723,1.304,0.957,0.431,0.744,0.704,��,8.1,�L
2019/06/28,06:00,0.744,1.050,0.723,1.304,0.959,0.432,0.747,0.705,��,8.2,�L
2019/06/28,06:10,0.744,1.049,0.723,1.305,0.960,0.431,0.746,0.705,��,8.1,�L
2019/06/28,06:20,0.745,1.049,0.721,1.304,0.960,0.431,0.746,0.705,��쐼,6.1,��
2019/06/28,06:30,0.746,1.042,0.723,1.305,0.958,0.430,0.747,0.705,��,6.5,��
2019/06/28,06:40,0.746,1.050,0.724,1.306,0.959,0.431,0.747,0.705,��쐼,7.7,�L
2019/06/28,06:50,0.747,1.047,0.723,1.305,0.961,0.431,0.749,0.705,��쐼,7.6,�L
2019/06/28,07:00,0.746,1.050,0.725,1.306,0.959,0.430,0.747,0.704,��쐼,8.3,�L
2019/06/28,07:10,0.746,1.049,0.724,1.302,0.960,0.430,0.745,0.705,��,8.0,��
2019/06/28,07:20,0.746,1.052,0.724,1.305,0.960,0.431,0.745,0.706,��,6.1,��
2019/06/28,07:30,0.746,1.052,0.723,1.304,0.960,0.429,0.746,0.705,��,6.1,��
2019/06/28,07:40,0.750,1.051,0.724,1.306,0.960,0.430,0.744,0.706,��,6.5,��
2019/06/28,07:50,0.746,1.055,0.723,1.303,0.961,0.430,0.746,0.706,��,5.7,��
2019/06/28,08:00,0.748,1.049,0.725,1.303,0.962,0.432,0.745,0.706,��,4.2,��
2019/06/28,08:10,0.748,1.053,0.724,1.304,0.963,0.430,0.746,0.707,��,5.1,��
2019/06/28,08:20,0.747,1.053,0.725,1.306,0.963,0.432,0.744,0.707,��,4.8,��
2019/06/28,08:30,0.748,1.051,0.726,1.305,0.962,0.431,0.745,0.705,��쐼,3.9,��
2019/06/28,08:40,0.751,1.054,0.725,1.306,0.962,0.433,0.746,0.704,�쐼,3.5,��
2019/06/28,08:50,0.752,1.052,0.724,1.309,0.961,0.432,0.748,0.704,��쐼,3.2,��
2019/06/28,09:00,0.750,1.055,0.724,1.307,0.966,0.433,0.747,0.703,��쐼,0.9,��
2019/06/28,09:10,0.751,1.052,0.726,1.306,0.965,0.433,0.748,0.708,�쓌,1.7,��
2019/06/28,09:20,0.751,1.053,0.725,1.308,0.966,0.434,0.747,0.703,��쓌,4.6,��
2019/06/28,09:30,0.752,1.054,0.725,1.310,0.963,0.433,0.747,0.705,��쓌,2.6,��
2019/06/28,09:40,0.750,1.053,0.725,1.308,0.964,0.433,0.749,0.707,�k�k��,6.4,��
2019/06/28,09:50,0.749,1.053,0.724,1.309,0.965,0.433,0.749,0.705,�k,7.5,��
2019/06/28,10:00,0.750,1.057,0.725,1.311,0.965,0.432,0.748,0.707,�k,7.9,��
2019/06/28,10:10,0.749,1.058,0.723,1.307,0.967,0.432,0.746,0.706,�k�k��,10.5,��
2019/06/28,10:20,0.748,1.058,0.723,1.311,0.965,0.431,0.747,0.706,�k,9.7,��
2019/06/28,10:30,0.749,1.058,0.724,1.312,0.967,0.431,0.746,0.705,�k,9.9,��
2019/06/28,10:40,0.748,1.054,0.725,1.309,0.966,0.431,0.747,0.705,�k,9.1,��
2019/06/28,10:50,0.749,1.057,0.725,1.307,0.966,0.430,0.748,0.706,�k,8.7,��
2019/06/28,11:00,0.747,1.059,0.724,1.310,0.965,0.429,0.745,0.705,�k�k��,7.3,��
2019/06/28,11:10,0.750,1.059,0.725,1.309,0.967,0.429,0.745,0.704,�k,8.0,��
2019/06/28,11:20,0.749,1.058,0.726,1.310,0.968,0.428,0.746,0.707,�k,6.0,��
2019/06/28,11:30,0.747,1.060,0.725,1.312,0.968,0.429,0.747,0.705,�k,7.4,��
2019/06/28,11:40,0.750,1.061,0.724,1.309,0.967,0.429,0.746,0.704,�k,5.6,��
2019/06/28,11:50,0.749,1.057,0.722,1.311,0.966,0.429,0.745,0.704,�k,6.5,��
2019/06/28,12:00,0.749,1.057,0.724,1.313,0.969,0.429,0.745,0.705,�k,6.5,��
2019/06/28,12:10,0.748,1.058,0.723,1.313,0.967,0.428,0.748,0.705,�k,6.2,��
2019/06/28,12:20,0.749,1.058,0.724,1.313,0.966,0.428,0.747,0.705,�k,6.3,��
2019/06/28,12:30,0.747,1.067,0.726,1.314,0.969,0.429,0.746,0.706,�k,6.2,��
2019/06/28,12:40,0.749,1.059,0.725,1.311,0.968,0.426,0.747,0.704,�k,6.5,��
2019/06/28,12:50,0.747,1.061,0.724,1.310,0.969,0.429,0.746,0.705,�k,6.3,��
2019/06/28,13:00,0.748,1.059,0.723,1.312,0.967,0.428,0.745,0.705,�k,6.2,��
2019/06/28,13:10,0.749,1.059,0.725,1.314,0.967,0.427,0.747,0.708,�k,7.0,��
2019/06/28,13:20,0.749,1.059,0.724,1.314,0.967,0.429,0.747,0.706,�k,7.4,��
2019/06/28,13:30,0.747,1.057,0.725,1.314,0.968,0.428,0.746,0.705,�k,7.3,��
2019/06/28,13:40,0.748,1.056,0.725,1.313,0.968,0.427,0.747,0.706,�k,7.0,��
2019/06/28,13:50,0.748,1.055,0.725,1.313,0.967,0.427,0.745,0.707,�k,6.3,��
2019/06/28,14:00,0.747,1.057,0.728,1.314,0.967,0.427,0.746,0.706,�k,7.3,��
2019/06/28,14:10,0.749,1.057,0.728,1.313,0.969,0.427,0.745,0.707,�k,7.5,��
2019/06/28,14:20,0.748,1.059,0.725,1.314,0.966,0.428,0.746,0.707,�k,7.9,�L
2019/06/28,14:30,0.745,1.057,0.727,1.310,0.962,0.430,0.746,0.705,�k,6.2,�L
2019/06/28,14:40,0.747,1.052,0.723,1.306,0.957,0.430,0.743,0.705,�k,6.0,�L
2019/06/28,14:50,0.746,1.046,0.721,1.303,0.955,0.430,0.742,0.703,�k�k��,6.3,�L
2019/06/28,15:00,0.743,1.048,0.719,1.302,0.955,0.430,0.743,0.701,�k,6.8,�L
2019/06/28,15:10,0.744,1.043,0.720,1.297,0.953,0.431,0.742,0.701,�k�k��,6.7,�L
2019/06/28,15:20,0.743,1.043,0.720,1.297,0.951,0.428,0.741,0.701,�k,6.4,�L
2019/06/28,15:30,0.744,1.043,0.718,1.299,0.952,0.427,0.742,0.702,�k,6.5,�L
2019/06/28,15:40,0.741,1.041,0.718,1.294,0.951,0.427,0.742,0.700,�k,5.5,�L
2019/06/28,15:50,0.741,1.041,0.718,1.293,0.951,0.427,0.742,0.701,�k�k��,5.6,�L
2019/06/28,16:00,0.742,1.040,0.716,1.293,0.952,0.427,0.742,0.702,�k,5.8,�L
2019/06/28,16:10,0.741,1.040,0.716,1.298,0.951,0.428,0.743,0.701,�k,4.8,�L
2019/06/28,16:20,0.739,1.042,0.715,1.296,0.951,0.428,0.740,0.703,�k,4.5,�L
2019/06/28,16:30,0.739,1.040,0.718,1.295,0.951,0.427,0.739,0.700,�k,5.6,�L
2019/06/28,16:40,0.739,1.042,0.718,1.295,0.955,0.427,0.738,0.702,�k,6.0,�L
2019/06/28,16:50,0.740,1.040,0.719,1.296,0.953,0.427,0.739,0.702,�k,6.5,�L
2019/06/28,17:00,0.738,1.041,0.718,1.297,0.953,0.427,0.740,0.700,�k,5.4,��
2019/06/28,17:10,0.737,1.041,0.717,1.294,0.953,0.426,0.740,0.701,�k,6.0,��
2019/06/28,17:20,0.736,1.039,0.717,1.293,0.952,0.426,0.741,0.704,�k,5.2,�L
2019/06/28,17:30,0.737,1.040,0.717,1.297,0.953,0.425,0.740,0.701,�k,5.0,�L
2019/06/28,17:40,0.736,1.039,0.717,1.295,0.952,0.424,0.740,0.702,�k,4.9,�L
2019/06/28,17:50,0.738,1.039,0.718,1.294,0.952,0.427,0.740,0.702,�k�k��,3.6,�L
2019/06/28,18:00,0.738,1.037,0.719,1.296,0.952,0.425,0.742,0.703,�k,4.8,��
2019/06/28,18:10,0.736,1.041,0.718,1.296,0.954,0.424,0.740,0.703,�k,5.9,��
2019/06/28,18:20,0.736,1.040,0.716,1.296,0.953,0.425,0.740,0.703,�k,4.8,�L
2019/06/28,18:30,0.737,1.041,0.718,1.296,0.953,0.426,0.742,0.703,�k,4.8,�L
2019/06/28,18:40,0.737,1.040,0.718,1.292,0.954,0.426,0.740,0.704,�k,4.7,�L
2019/06/28,18:50,0.736,1.039,0.717,1.296,0.955,0.425,0.739,0.702,�k,5.5,�L
2019/06/28,19:00,0.737,1.038,0.716,1.297,0.952,0.425,0.740,0.701,�k,4.1,�L
2019/06/28,19:10,0.737,1.038,0.715,1.295,0.951,0.426,0.739,0.703,�k,4.7,�L
2019/06/28,19:20,0.735,1.041,0.716,1.298,0.954,0.426,0.740,0.704,�k,4.8,�L
2019/06/28,19:30,0.735,1.039,0.718,1.296,0.953,0.426,0.741,0.703,�k,4.6,�L
2019/06/28,19:40,0.733,1.039,0.717,1.294,0.955,0.425,0.741,0.704,�k�k��,3.4,�L
2019/06/28,19:50,0.736,1.040,0.715,1.296,0.951,0.424,0.744,0.706,�k�k��,3.5,�L
2019/06/28,20:00,0.735,1.040,0.715,1.297,0.953,0.427,0.740,0.704,�k�k��,4.0,�L
2019/06/28,20:10,0.734,1.037,0.716,1.295,0.954,0.427,0.743,0.704,�k�k��,4.7,�L
2019/06/28,20:20,0.736,1.041,0.716,1.296,0.955,0.426,0.742,0.704,�k,4.8,�L
2019/06/28,20:30,0.736,1.037,0.718,1.297,0.951,0.427,0.741,0.704,�k,4.2,�L
2019/06/28,20:40,0.736,1.038,0.716,1.294,0.954,0.426,0.742,0.704,�k�k��,4.0,�L
2019/06/28,20:50,0.735,1.037,0.716,1.294,0.952,0.426,0.742,0.704,�k�k��,4.1,�L
2019/06/28,21:00,0.734,1.036,0.715,1.294,0.952,0.427,0.741,0.704,�k,3.4,�L
2019/06/28,21:10,0.733,1.035,0.716,1.292,0.952,0.427,0.741,0.704,�k,3.9,�L
2019/06/28,21:20,0.736,1.034,0.716,1.295,0.950,0.426,0.741,0.703,�k,3.0,�L
2019/06/28,21:30,0.733,1.033,0.715,1.294,0.947,0.427,0.740,0.702,�k,3.5,�L
2019/06/28,21:40,0.735,1.033,0.715,1.294,0.949,0.425,0.739,0.703,�k,3.7,�L
2019/06/28,21:50,0.733,1.032,0.714,1.290,0.951,0.428,0.738,0.705,�k,3.5,�L
2019/06/28,22:00,0.734,1.034,0.714,1.291,0.947,0.425,0.740,0.703,�k�k��,3.1,��
2019/06/28,22:10,0.734,1.035,0.714,1.290,0.948,0.426,0.739,0.703,�k�k��,2.6,�L
2019/06/28,22:20,0.735,1.038,0.715,1.293,0.950,0.426,0.740,0.704,�k�k��,2.6,�L
2019/06/28,22:30,0.735,1.036,0.714,1.293,0.949,0.425,0.741,0.703,�k�k��,2.9,��
2019/06/28,22:40,0.736,1.036,0.715,1.290,0.950,0.426,0.741,0.703,�k�k��,2.3,��
2019/06/28,22:50,0.736,1.037,0.715,1.291,0.948,0.426,0.739,0.701,�k�k��,2.0,�L
2019/06/28,23:00,0.736,1.037,0.713,1.291,0.949,0.425,0.739,0.703,�k�k��,2.0,�L
2019/06/28,23:10,0.734,1.036,0.713,1.289,0.948,0.426,0.741,0.702,�k��,2.2,�L
2019/06/28,23:20,0.735,1.037,0.712,1.291,0.949,0.425,0.740,0.703,�k��,2.5,�L
2019/06/28,23:30,0.736,1.035,0.713,1.288,0.948,0.427,0.741,0.703,�k�k��,2.6,�L
2019/06/28,23:40,0.736,1.036,0.713,1.290,0.946,0.425,0.740,0.702,�k�k��,2.6,�L
2019/06/28,23:50,0.734,1.035,0.714,1.290,0.949,0.425,0.742,0.702,�k�k��,2.6,�L
